Weather History for Red Bluff, CA

Change the Weather History Date:

Monday, November 19, 2012

  Actual Average Record
Temperature  
Mean Temperature 55 °F -  
Max Temperature 60 °F 61 °F 90 °F (1936)
Min Temperature 50 °F 40 °F 28 °F (2011)
Degree Days  
Heating Degree Days 10    
Growing Degree Days 5 (Base 50)    
Moisture  
Dew Point 46 °F    
Average Humidity 66    
Maximum Humidity 77    
Minimum Humidity 55    
Precipitation  
Precipitation 0.00 in - - ()
Sea Level Pressure  
Sea Level Pressure 30.14 in    
Wind  
Wind Speed 12 mph (South)    
Max Wind Speed 22 mph    
Max Gust Speed 29 mph    
Visibility 10 miles    
Events      
Averages and records for this station are not official NWS values.
T = Trace of Precipitation, MM = Missing Value Source: NWS Daily Summary

Daily Weather History Graph

Daily Weather History Graph

Search for Another Location

Airport:

Trip Planner

Search our weather history database for the weather conditions in past years. The results will help you decide how hot, cold, wet, or windy it might be!

Date:

Astronomy

Nov. 19, 2012 Rise Set
Actual Time 6:59 AM PST 4:48 PM PST
Civil Twilight 6:30 AM PST 5:18 PM PST
Nautical Twilight 5:57 AM PST 5:51 PM PST
Astronomical Twilight 5:25 AM PST 6:23 PM PST
Moon 12:05 PM PST (11/19) 11:22 PM PST (11/19)
Length of Visible Light 10h 48m
Length of Day
9h 49m
Waxing Crescent, 42% of the Moon is Illuminated
Nov 19
Waxing Crescent
Nov 20
First Quarter
Nov 28
Full
Dec 6
Last Quarter
Dec 13
New

Hourly Weather History & Observations

Time (PST) Temp. Dew Point Humidity Pressure Visibility Wind Dir Wind Speed Gust Speed Precip Events Conditions
12:54 AM 53.1 °F 45.0 °F 74% 30.16 in 10.0 mi South 9.2 mph - N/A   Overcast
1:54 AM 53.1 °F 46.0 °F 77% 30.17 in 10.0 mi SSW 8.1 mph - N/A   Overcast
2:54 AM 53.1 °F 46.0 °F 77% 30.15 in 10.0 mi South 8.1 mph - N/A   Overcast
3:54 AM 53.1 °F 45.0 °F 74% 30.15 in 10.0 mi South 6.9 mph - N/A   Overcast
4:54 AM 53.1 °F 45.0 °F 74% 30.15 in 10.0 mi South 6.9 mph - N/A   Overcast
5:54 AM 53.1 °F 44.1 °F 71% 30.15 in 10.0 mi SSW 6.9 mph - N/A   Overcast
6:54 AM 53.1 °F 44.1 °F 71% 30.16 in 10.0 mi South 5.8 mph - N/A   Overcast
7:54 AM 53.1 °F 44.1 °F 71% 30.16 in 10.0 mi SSW 8.1 mph - N/A   Overcast
8:54 AM 55.0 °F 45.0 °F 69% 30.18 in 10.0 mi South 12.7 mph - N/A   Overcast
9:54 AM 55.9 °F 45.0 °F 67% 30.19 in 10.0 mi South 11.5 mph - N/A   Overcast
10:54 AM 57.9 °F 44.1 °F 60% 30.19 in 10.0 mi SSE 17.3 mph - N/A   Overcast
11:54 AM 57.9 °F 44.1 °F 60% 30.17 in 10.0 mi SSE 19.6 mph 26.5 mph N/A   Overcast
12:54 PM 57.9 °F 45.0 °F 62% 30.15 in 10.0 mi SSE 13.8 mph - N/A   Overcast
1:54 PM 59.0 °F 45.0 °F 60% 30.15 in 10.0 mi SSE 16.1 mph - N/A   Overcast
2:54 PM 59.0 °F 46.0 °F 62% 30.12 in 10.0 mi SSE 16.1 mph 25.3 mph N/A   Overcast
3:54 PM 59.0 °F 46.9 °F 64% 30.12 in 10.0 mi SSE 15.0 mph - N/A   Overcast
4:54 PM 59.0 °F 46.9 °F 64% 30.12 in 10.0 mi South 18.4 mph 25.3 mph N/A   Overcast
5:54 PM 60.1 °F 46.9 °F 62% 30.11 in 10.0 mi SSE 21.9 mph 28.8 mph N/A   Mostly Cloudy
6:54 PM 60.1 °F 46.9 °F 62% 30.11 in 10.0 mi SSE 21.9 mph - N/A   Overcast
7:54 PM 60.1 °F 46.9 °F 62% 30.10 in 10.0 mi SSE 20.7 mph 27.6 mph N/A   Overcast
8:54 PM 60.1 °F 46.9 °F 62% 30.10 in 10.0 mi SSE 17.3 mph 27.6 mph N/A   Overcast
9:54 PM 59.0 °F 48.0 °F 67% 30.12 in 10.0 mi SSE 16.1 mph 24.2 mph N/A   Overcast
10:54 PM 59.0 °F 46.9 °F 64% 30.10 in 10.0 mi SSE 15.0 mph - N/A   Overcast
11:54 PM 59.0 °F 46.0 °F 62% 30.10 in 10.0 mi SSE 20.7 mph 26.5 mph N/A   Overcast